Tracking 30918 objects as of 2-Jul-2025
HD Live streaming from Space Station
objects crossing your sky now

METEOR M2-4

Track METEOR M2-4 now!
10-day predictions
METEOR M2-4 is classified as:


NORAD ID: 59051
Int'l Code: 2024-039A
Perigee: 818.6 km
Apogee: 830.4 km
Inclination: 98.7 °
Period: 101.2 minutes
Semi major axis: 7195 km
RCS: Unknown
Launch date: February 29, 2024
Source: Commonwealth of Independent States (former USSR) (CIS)
Launch site: VOSTOCHNY COSMODROME (VOSTO)

Uplink (MHz):
Downlink (MHz): 137.100/137.900
Beacon (MHz):
Mode: 72K LRPT HRPT
Call sign:
Status:

Your satellite tracking list
Your tracking list is empty




NASA's NSSDC Master Catalog

Two Line Element Set (TLE):
1 59051U 24039A   25183.15464214  .00000008  00000-0  23053-4 0  9999
2 59051  98.6503 142.8740 0008214 101.1602 259.0500 14.22370052 69502
Source of the keplerian elements: AFSPC